Location: Newark
(35.2672°N, 80.7344°W)
Time: 19:22:35
(UTC+00:00)

Vanguard 2 Rocket - Pass Details

Date: 18 January 2020
Orbit: 553 x 3327 km, 32.9° (Epoch: 26 February)

Event Time Altitude Azimuth Distance (km) Brightness Sun altitude
Rises 09:47:14 0° 193° (SSW) 2,851 - -33.0°
Exits shadow 09:50:12 - 167° (SSE) 2,228 9.1 -32.4°
Reaches altitude 10° 09:50:37 10° 162° (SSE) 2,186 9.1 -32.3°
Maximum altitude 09:52:44 13° 136° (SE) 2,200 9.3 -31.8°
Drops below altitude 10° 09:55:11 10° 112° (ESE) 2,626 10.1 -31.3°
Sets 10:00:16 0° 86° (E) 4,165 11.4 -30.3°
